Cincinnati, OH

8:50 AM EST on November 18, 2019 (GMT -0500)
Cincinnati Municipal-Lunken

Weather History for KLUK - October, 2019

Change the Weather History Date:

Monday, October 21, 2019

  Actual Average Record
Temperature  
Mean Temperature 62 °F -  
Max Temperature 75 °F 65 °F 83 °F (1979)
Min Temperature 48 °F 43 °F 25 °F (1974)
Degree Days  
Heating Degree Days 4    
Growing Degree Days 12 (Base 50)    
Moisture  
Dew Point 54 °F    
Average Humidity 92    
Maximum Humidity 100    
Minimum Humidity 57    
Precipitation  
Precipitation 0.06 in - - ()
Sea Level Pressure  
Sea Level Pressure 29.88 in    
Wind  
Wind Speed 3 mph ()    
Max Wind Speed 20 mph    
Max Gust Speed 29 mph    
Visibility 4.8 miles    
Events Fog , Rain    
Averages and records for this station are not official NWS values.
T = Trace of Precipitation, MM = Missing Value Source: Averaged Metar Reports

Daily Weather History Graph

Daily Weather History Graph

Search for Another Location

Airport or City:

Astronomy

Oct. 21, 2019 Rise Set
Actual Time 7:53 AM EDT 6:50 PM EDT
Civil Twilight 7:26 AM EDT 7:17 PM EDT
Nautical Twilight 6:54 AM EDT 7:49 PM EDT
Astronomical Twilight 6:23 AM EDT 8:20 PM EDT
Moon 12:02 AM EDT (10/21) 3:08 PM EDT (10/21)
Length of Visible Light 11h 51m
Length of Day
10h 57m
Waning Gibbous, 48% of the Moon is Illuminated
Oct 21
Waning Gibbous
Oct 27
New
Nov 4
First Quarter
Nov 12
Full
Nov 19
Last Quarter

Hourly Weather History & Observations

Time (EDT) Temp. Dew Point Humidity Pressure Visibility Wind Dir Wind Speed Gust Speed Precip Events Conditions
12:53 AM 61.0 °F 57.0 °F 87% 29.96 in 10.0 mi Calm Calm - N/A   Clear
1:23 AM 54.0 °F 54.0 °F 100% 29.96 in 2.0 mi Calm Calm - N/A   Clear
1:35 AM 55.0 °F 54.0 °F 96% 29.96 in 4.0 mi Calm Calm - N/A   Clear
1:37 AM 54.0 °F 54.0 °F 100% 29.96 in 1.5 mi Calm Calm - N/A   Clear
1:45 AM 53.1 °F 53.1 °F 100% 29.96 in 0.2 mi Calm Calm - N/A Fog Fog
1:53 AM 54.0 °F 54.0 °F 100% 29.95 in 0.2 mi Calm Calm - N/A Fog Fog
2:00 AM 53.1 °F 52.0 °F 96% 29.95 in 0.8 mi NE 3.5 mph - N/A   Clear
2:06 AM 54.0 °F 54.0 °F 100% 29.95 in 2.0 mi NNE 3.5 mph - N/A   Clear
2:33 AM 53.1 °F 53.1 °F 100% 29.94 in 1.5 mi NE 3.5 mph - N/A   Clear
2:41 AM 52.0 °F 52.0 °F 100% 29.94 in 0.5 mi Calm Calm - N/A Fog Fog
2:47 AM 51.8 °F 51.8 °F 100% 29.94 in 2.0 mi Calm Calm - N/A   Clear
2:53 AM 52.0 °F 52.0 °F 100% 29.93 in 2.5 mi Calm Calm - N/A   Clear
3:00 AM 52.0 °F 52.0 °F 100% 29.93 in 0.8 mi Calm Calm - N/A   Clear
3:10 AM 53.1 °F 52.0 °F 96% 29.92 in 2.0 mi Calm Calm - N/A   Clear
3:14 AM 52.0 °F 52.0 °F 100% 29.92 in 1.0 mi Calm Calm - N/A   Mist
3:21 AM 52.0 °F 52.0 °F 100% 29.92 in 0.5 mi Calm Calm - N/A Fog Fog
3:35 AM 51.1 °F 51.1 °F 100% 29.91 in 0.2 mi Calm Calm - N/A Fog Fog
3:44 AM 51.1 °F 51.1 °F 100% 29.91 in 0.2 mi Calm Calm - N/A Fog Fog
3:53 AM 51.1 °F 51.1 °F 100% 29.90 in 0.5 mi Calm Calm - N/A Fog Fog
4:01 AM 52.0 °F 52.0 °F 100% 29.91 in 1.2 mi Calm Calm - N/A   Scattered Clouds
4:04 AM 51.1 °F 51.1 °F 100% 29.91 in 3.0 mi Calm Calm - N/A   Partly Cloudy
4:07 AM 51.1 °F 51.1 °F 100% 29.90 in 1.8 mi Calm Calm - N/A   Partly Cloudy
4:11 AM 50.0 °F 50.0 °F 100% 29.90 in 0.8 mi ENE 3.5 mph - N/A   Mist
4:48 AM 50.0 °F 50.0 °F 100% 29.91 in 2.5 mi Calm Calm - N/A   Mostly Cloudy
4:53 AM 48.9 °F 48.9 °F 100% 29.91 in 4.0 mi Calm Calm - N/A   Overcast
5:38 AM 52.0 °F 52.0 °F 100% 29.90 in 1.5 mi NNE 3.5 mph - N/A   Scattered Clouds
5:47 AM 51.8 °F 51.8 °F 100% 29.90 in 3.0 mi NNE 3.5 mph - N/A   Partly Cloudy
5:53 AM 51.1 °F 51.1 °F 100% 29.91 in 1.2 mi Calm Calm - N/A   Partly Cloudy
5:55 AM 50.0 °F 50.0 °F 100% 29.91 in 0.8 mi Calm Calm - N/A   Mist
6:10 AM 51.1 °F 50.0 °F 96% 29.90 in 1.5 mi Calm Calm - N/A   Scattered Clouds
6:22 AM 52.0 °F 52.0 °F 100% 29.91 in 1.0 mi Calm Calm - N/A   Mostly Cloudy
6:30 AM 52.0 °F 52.0 °F 100% 29.91 in 3.0 mi Calm Calm - N/A   Mostly Cloudy
6:53 AM 52.0 °F 52.0 °F 100% 29.90 in 7.0 mi Calm Calm - N/A   Overcast
7:11 AM 55.0 °F 54.0 °F 96% 29.90 in 7.0 mi Calm Calm - N/A   Overcast
7:53 AM 59.0 °F 57.0 °F 93% 29.89 in 10.0 mi SE 6.9 mph - N/A   Overcast
8:53 AM 60.1 °F 57.0 °F 90% 29.88 in 10.0 mi SSE 5.8 mph - N/A   Mostly Cloudy
9:51 AM 60.8 °F 57.2 °F 88% 29.86 in 10.0 mi SSE 9.2 mph - N/A   Scattered Clouds
9:53 AM 61.0 °F 57.0 °F 87% 29.85 in 10.0 mi SSE 10.4 mph - N/A   Scattered Clouds
10:53 AM 64.9 °F 57.9 °F 78% 29.82 in 10.0 mi ESE 12.7 mph 25.3 mph N/A   Scattered Clouds
11:53 AM 69.1 °F 57.9 °F 68% 29.78 in 10.0 mi SE 13.8 mph 25.3 mph N/A   Mostly Cloudy
12:53 PM 66.9 °F 60.1 °F 79% 29.81 in 10.0 mi South 11.5 mph - 0.01 in   Overcast
1:53 PM 69.1 °F 60.1 °F 73% 29.76 in 10.0 mi SSE 8.1 mph - 0.00 in   Mostly Cloudy
2:53 PM 73.9 °F 60.1 °F 62% 29.73 in 10.0 mi South 18.4 mph 28.8 mph 0.00 in Rain Light Rain
3:53 PM 75.0 °F 59.0 °F 57% 29.71 in 10.0 mi South 19.6 mph 24.2 mph 0.00 in   Overcast
4:53 PM 73.9 °F 57.9 °F 57% 29.73 in 10.0 mi SW 12.7 mph - 0.00 in   Overcast
5:53 PM 69.1 °F 57.0 °F 65% 29.75 in 10.0 mi SSW 17.3 mph 28.8 mph 0.00 in Rain Light Rain
6:53 PM 64.0 °F 61.0 °F 90% 29.75 in 10.0 mi South 10.4 mph - 0.01 in Rain Light Rain
7:53 PM 63.0 °F 60.1 °F 90% 29.77 in 9.0 mi South 12.7 mph - 0.02 in Rain Light Rain
8:53 PM 63.0 °F 60.1 °F 90% 29.77 in 10.0 mi South 12.7 mph - 0.02 in   Overcast
9:53 PM 62.1 °F 59.0 °F 90% 29.77 in 10.0 mi South 11.5 mph - N/A   Mostly Cloudy
10:53 PM 62.1 °F 59.0 °F 90% 29.78 in 10.0 mi South 12.7 mph - N/A   Mostly Cloudy
11:53 PM 62.1 °F 59.0 °F 90% 29.78 in 10.0 mi South 9.2 mph - N/A   Overcast